Siler City Muni, Siler City,, NC

3:15 AM EDT on June 25, 2017 (GMT -0400)
Siler City Muni, Siler City,

Weather History for K5W8 - April, 2014

Change the Weather History Date:

Thursday, April 10, 2014

  Actual Average (KBUY) Record (KBUY)
Temperature  
Mean Temperature 53 °F -  
Max Temperature 73 °F 68 °F 90 °F (2001)
Min Temperature 33 °F 43 °F 27 °F (1985)
Degree Days  
Heating Degree Days 12    
Growing Degree Days 3 (Base 50)    
Moisture  
Dew Point 36 °F    
Average Humidity 59    
Maximum Humidity 97    
Minimum Humidity 23    
Precipitation  
Precipitation 0.00 in - - ()
Sea Level Pressure  
Sea Level Pressure 30.19 in    
Wind  
Wind Speed 2 mph (SSW)    
Max Wind Speed 14 mph    
Max Gust Speed 21 mph    
Visibility 10 miles    
Events      
Averages and records for this station are not official NWS values.
T = Trace of Precipitation, MM = Missing Value Source: NWS Daily Summary

Daily Weather History Graph

Daily Weather History Graph

Search for Another Location

Airport or City:

Trip Planner

Search our weather history database for the weather conditions in past years. The results will help you decide how hot, cold, wet, or windy it might be!

Date:

Astronomy

Apr. 10, 2014 Rise Set
Actual Time 6:51 AM EDT 7:47 PM EDT
Civil Twilight 6:25 AM EDT 8:13 PM EDT
Nautical Twilight 5:55 AM EDT 8:44 PM EDT
Astronomical Twilight 5:23 AM EDT 9:16 PM EDT
Moon 3:37 PM EDT (4/10) 4:05 AM EDT (4/10)
Length of Visible Light 13h 47m
Length of Day
12h 55m
Waxing Gibbous, 79% of the Moon is Illuminated
Apr 10
Waxing Gibbous
Apr 15
Full
Apr 22
Last Quarter
Apr 29
New
May 6
First Quarter

Hourly Weather History & Observations

Time (EDT) Temp. Dew Point Humidity Pressure Visibility Wind Dir Wind Speed Gust Speed Precip Events Conditions
12:15 AM 40.1 °F 37.8 °F 91% 30.12 in 10.0 mi Calm Calm - N/A   Clear
12:35 AM 40.1 °F 37.6 °F 91% 30.13 in 10.0 mi Calm Calm - N/A   Clear
12:55 AM 39.0 °F 37.0 °F 93% 30.13 in 10.0 mi Calm Calm - N/A   Clear
1:15 AM 39.2 °F 37.2 °F 93% 30.13 in 10.0 mi Calm Calm - N/A   Clear
1:35 AM 38.3 °F 36.9 °F 95% 30.14 in 10.0 mi Calm Calm - N/A   Clear
1:55 AM 37.8 °F 35.6 °F 92% 30.14 in 10.0 mi Calm Calm - N/A   Clear
2:15 AM 37.4 °F 36.1 °F 95% 30.14 in 10.0 mi Calm Calm - N/A   Clear
2:35 AM 37.4 °F 36.0 °F 95% 30.14 in 10.0 mi Calm Calm - N/A   Clear
2:55 AM 36.9 °F 35.4 °F 95% 30.14 in 10.0 mi Calm Calm - N/A   Clear
3:15 AM 36.5 °F 35.2 °F 95% 30.14 in 10.0 mi Calm Calm - N/A   Clear
3:35 AM 36.5 °F 35.1 °F 95% 30.15 in 10.0 mi Calm Calm - N/A   Clear
3:55 AM 36.0 °F 34.7 °F 95% 30.16 in 10.0 mi Calm Calm - N/A   Clear
4:15 AM 35.4 °F 34.5 °F 97% 30.16 in 10.0 mi Calm Calm - N/A   Clear
4:35 AM 34.9 °F 33.8 °F 96% 30.17 in 10.0 mi Calm Calm - N/A   Clear
4:55 AM 35.1 °F 34.0 °F 96% 30.17 in 10.0 mi Calm Calm - N/A   Clear
5:15 AM 35.1 °F 34.0 °F 96% 30.18 in 10.0 mi Calm Calm - N/A   Clear
5:35 AM 34.2 °F 33.3 °F 97% 30.18 in 10.0 mi Calm Calm - N/A   Clear
5:55 AM 34.2 °F 33.1 °F 96% 30.19 in 10.0 mi Calm Calm - N/A   Clear
6:15 AM 34.5 °F 33.3 °F 95% 30.19 in 10.0 mi Calm Calm - N/A   Clear
6:35 AM 34.0 °F 32.9 °F 96% 30.21 in 10.0 mi Calm Calm - N/A   Clear
6:55 AM 33.3 °F 32.2 °F 96% 30.23 in 10.0 mi Calm Calm - N/A   Clear
7:15 AM 33.3 °F 32.5 °F 97% 30.24 in 10.0 mi Calm Calm - N/A   Clear
7:35 AM 35.2 °F 34.3 °F 97% 30.24 in 10.0 mi Calm Calm - N/A   Clear
7:55 AM 38.5 °F 37.0 °F 95% 30.25 in 10.0 mi Calm Calm - N/A   Clear
8:15 AM 43.0 °F 40.1 °F 90% 30.26 in 10.0 mi Calm Calm - N/A   Clear
8:35 AM 47.7 °F 41.7 °F 80% 30.26 in 10.0 mi Calm Calm - N/A   Clear
8:55 AM 52.5 °F 42.4 °F 69% 30.26 in 10.0 mi Calm Calm - N/A   Clear
9:15 AM 55.6 °F 44.1 °F 65% 30.26 in 10.0 mi Calm Calm - N/A   Clear
9:35 AM 58.3 °F 41.5 °F 54% 30.27 in 10.0 mi Calm Calm - N/A   Clear
9:55 AM 60.8 °F 36.9 °F 41% 30.27 in 10.0 mi Calm Calm - N/A   Clear
10:15 AM 62.1 °F 37.0 °F 39% 30.27 in 10.0 mi Calm Calm - N/A   Clear
10:55 AM 64.6 °F 34.3 °F 32% 30.28 in 10.0 mi SSW 9.2 mph - N/A   Clear
11:15 AM 64.8 °F 32.9 °F 30% 30.27 in 10.0 mi South 5.8 mph - N/A   Clear
11:40 AM 65.7 °F 34.5 °F 31% 30.26 in 10.0 mi South 6.9 mph - N/A   Clear
11:55 AM 66.2 °F 32.9 °F 29% 30.26 in 10.0 mi SW 6.9 mph - N/A   Clear
12:15 PM 67.1 °F 32.5 °F 28% 30.25 in 10.0 mi South 6.9 mph 17.3 mph N/A   Clear
12:35 PM 67.1 °F 33.4 °F 29% 30.24 in 10.0 mi South 9.2 mph 19.6 mph N/A   Clear
12:55 PM 67.6 °F 34.7 °F 30% 30.23 in 10.0 mi SW 5.8 mph - N/A   Clear
1:15 PM 68.4 °F 32.9 °F 27% 30.22 in 10.0 mi SW 9.2 mph 16.1 mph N/A   Clear
1:35 PM 68.9 °F 32.7 °F 26% 30.22 in 10.0 mi SW 12.7 mph 17.3 mph N/A   Clear
1:55 PM 70.5 °F 33.4 °F 26% 30.21 in 10.0 mi SSW 12.7 mph 17.3 mph N/A   Clear
2:15 PM 70.3 °F 32.2 °F 24% 30.20 in 10.0 mi SSW 8.1 mph 16.1 mph N/A   Clear
2:35 PM 71.1 °F 32.4 °F 24% 30.19 in 10.0 mi SSW 10.4 mph 20.7 mph N/A   Clear
3:15 PM 71.8 °F 32.4 °F 23% 30.18 in 10.0 mi SSW 11.5 mph 16.1 mph N/A   Clear
3:35 PM 72.5 °F 33.3 °F 24% 30.17 in 10.0 mi SSW 10.4 mph 17.3 mph N/A   Clear
3:55 PM 72.5 °F 33.8 °F 24% 30.16 in 10.0 mi SW 11.5 mph 17.3 mph N/A   Clear
4:15 PM 72.5 °F 34.7 °F 25% 30.16 in 10.0 mi SSW 6.9 mph 16.1 mph N/A   Clear
4:35 PM 73.2 °F 35.6 °F 25% 30.16 in 10.0 mi SW 9.2 mph 16.1 mph N/A   Clear
4:55 PM 73.0 °F 36.0 °F 26% 30.15 in 10.0 mi SW 10.4 mph 16.1 mph N/A   Clear
5:15 PM 73.4 °F 35.1 °F 25% 30.15 in 10.0 mi SSW 13.8 mph - N/A   Clear
5:35 PM 73.4 °F 35.2 °F 25% 30.15 in 10.0 mi SSW 11.5 mph 17.3 mph N/A   Clear
5:55 PM 72.9 °F 36.7 °F 27% 30.14 in 10.0 mi SW 5.8 mph 18.4 mph N/A   Clear
6:15 PM 72.9 °F 37.6 °F 28% 30.14 in 10.0 mi SW 8.1 mph - N/A   Clear
6:55 PM 71.8 °F 36.0 °F 27% 30.14 in 10.0 mi SW 8.1 mph - N/A   Clear
7:15 PM 71.1 °F 36.1 °F 28% 30.14 in 10.0 mi SSW 5.8 mph - N/A   Clear
7:35 PM 69.8 °F 36.5 °F 29% 30.15 in 10.0 mi SSW 4.6 mph - N/A   Clear
7:55 PM 66.7 °F 38.1 °F 35% 30.15 in 10.0 mi Calm Calm - N/A   Clear
8:15 PM 60.1 °F 41.2 °F 50% 30.15 in 10.0 mi Calm Calm - N/A   Clear
8:35 PM 59.9 °F 41.4 °F 50% 30.16 in 10.0 mi Calm Calm - N/A   Clear
8:55 PM 54.9 °F 42.4 °F 63% 30.17 in 10.0 mi Calm Calm - N/A   Clear
9:15 PM 55.4 °F 42.3 °F 61% 30.17 in 10.0 mi Calm Calm - N/A   Clear
9:35 PM 53.2 °F 42.1 °F 66% 30.18 in 10.0 mi Calm Calm - N/A   Clear
9:55 PM 53.4 °F 42.1 °F 65% 30.18 in 10.0 mi SSW 3.5 mph - N/A   Clear
10:15 PM 57.4 °F 39.9 °F 52% 30.18 in 10.0 mi SSW 3.5 mph - N/A   Clear
10:55 PM 59.9 °F 38.3 °F 45% 30.18 in 10.0 mi Calm Calm - N/A   Clear
11:15 PM 59.5 °F 38.3 °F 45% 30.18 in 10.0 mi SSW 3.5 mph - N/A   Clear
11:35 PM 56.3 °F 38.5 °F 51% 30.19 in 10.0 mi South 3.5 mph - N/A   Clear